Helicity
149 152 156 173 181 202 195 157 147 132 148 170 142 88 79 61 12 4 -4 18 6 -3 4 1 17 25 19 12 9 4 6 27 25
148 174 177 173 186 187 199 219 198 160 158 118 97 89 103 58 31 22 11 21 9 18 13 3 -4 12 19 5 11 10 11 23 21
163 166 183 183 191 198 211 206 238 251 198 154 128 122 114 65 50 40 32 33 -5 8 19 26 8 4 8 11 3 12 6 19 30
214 213 183 190 202 220 223 226 230 243 227 228 197 196 156 72 63 74 69 73 31 -2 40 16 24 13 8 4 2 5 -12 23 33
199 196 219 195 202 217 247 250 242 266 249 220 234 265 199 157 109 97 124 178 146 15 23 22 11 26 30 31 21 16 4 7 29
165 185 211 221 198 204 219 237 252 303 298 271 267 244 148 168 140 119 173 175 152 137 62 13 20 25 37 48 47 28 23 -2 21
131 142 158 161 212 243 224 241 251 260 228 234 260 218 211 161 148 144 199 189 188 156 134 128 24 32 38 47 59 41 38 23 16
105 117 113 80 128 107 165 184 169 202 213 229 221 232 230 189 169 180 214 196 198 187 180 162 144 43 39 31 66 67 70 61 32
70 56 74 96 88 105 106 118 141 164 177 175 196 209 209 196 172 186 250 238 202 181 175 173 170 137 40 36 40 61 64 67 62
13 23 34 51 75 107 135 130 124 119 163 169 171 173 177 193 172 149 232 231 236 215 191 173 156 174 120 35 24 43 21 64 73
12 16 7 -1 -11 -5 29 84 139 134 135 168 178 188 177 165 151 154 133 202 200 210 213 193 161 158 158 106 32 26 29 44 69
64 64 74 87 92 93 87 60 16 52 107 134 164 162 176 180 182 162 143 140 172 173 187 209 182 147 174 158 127 41 38 52 65
15 20 38 47 41 33 47 42 85 90 84 98 114 125 149 195 191 187 187 175 147 137 168 185 197 196 143 155 174 152 49 53 65
20 30 32 26 21 22 10 16 -2 16 14 38 61 113 153 159 153 203 200 231 246 241 224 247 254 238 220 166 164 161 138 59 68
57 53 62 62 67 66 52 39 29 -14 -21 2 -24 15 33 56 132 163 225 244 241 299 322 209 166 238 291 278 238 214 180 129 63
92 95 103 104 104 105 96 64 50 35 -2 -77 -15 -196 -88 -49 28 115 163 220 260 271 342 305 190 203 284 295 322 295 304 243 95
45 49 50 62 83 98 106 100 101 87 73 33 1 -11 -46 17 42 37 87 116 183 224 239 295 281 286 141 287 326 325 308 319 348
27 11 -1 5 19 39 53 71 90 100 131 108 30 26 80 129 1 139 66 125 83 158 167 191 225 234 232 248 255 331 275 328 283
37 32 30 26 35 44 64 80 94 93 124 150 131 104 88 54 -23 134 173 117 171 153 123 141 154 170 185 221 303 282 253 262 314
72 69 67 63 62 59 67 90 109 111 118 122 153 150 135 106 74 -2 128 207 114 175 153 112 100 128 197 156 218 211 257 301 205
Wind_Speed
40 42 41 41 41 41 41 41 42 42 42 42 43 44 44 44 43 42 41 37 25 27 28 28 27 27 27 30 34 37 18 13 13
42 43 43 44 44 43 43 44 44 45 44 44 46 47 46 45 44 46 44 44 34 31 32 33 32 29 28 31 33 31 19 17 17
45 45 46 46 47 45 46 46 46 46 46 47 48 50 49 48 48 45 45 46 45 36 34 37 35 32 31 32 35 35 29 21 20
48 48 49 48 48 49 49 50 49 49 50 50 51 52 50 45 45 47 44 51 48 42 34 38 36 34 33 33 38 39 39 27 22
49 50 51 51 50 52 52 53 53 52 53 53 54 53 51 51 50 47 45 50 49 49 41 40 40 39 33 32 35 42 42 38 26
50 51 51 53 52 54 55 56 56 56 54 56 57 54 54 54 53 52 54 54 54 53 57 45 42 44 38 33 32 39 43 42 35
50 51 52 52 54 56 57 57 59 57 56 57 59 57 59 58 58 57 62 62 60 60 58 55 53 45 52 40 33 36 41 43 42
51 52 54 54 55 56 58 59 59 59 59 60 61 62 61 61 62 64 68 68 67 65 64 60 57 60 53 45 41 39 44 47 45
52 54 55 55 57 60 59 60 61 62 61 62 63 65 66 67 67 66 70 72 72 71 70 68 65 60 55 46 46 47 43 45 46
52 55 57 57 59 62 63 63 63 64 66 64 66 67 69 70 70 71 75 74 76 76 75 74 73 68 64 52 54 57 55 50 47
54 57 57 57 59 61 62 65 65 66 68 70 71 72 71 72 73 75 76 79 80 80 81 78 77 77 73 69 55 62 66 62 60
58 60 61 63 63 64 65 64 64 69 71 74 74 73 74 75 77 78 79 81 82 82 84 83 83 81 80 76 76 64 67 72 55
55 58 60 61 62 62 64 64 69 69 72 74 75 77 79 81 81 77 79 81 82 82 84 86 87 87 85 87 82 82 73 64 69
56 58 61 62 63 64 65 67 68 71 71 75 77 79 82 82 79 83 81 80 81 82 85 88 89 91 90 90 91 89 87 78 66
58 62 63 63 66 67 68 70 69 70 76 80 76 79 78 73 73 75 75 75 72 72 75 76 77 79 80 84 86 90 93 90 82
64 66 67 68 70 71 73 73 75 76 78 76 87 70 65 64 68 75 74 76 78 80 81 76 74 78 81 81 84 80 79 87 91
64 65 66 66 68 70 71 73 76 73 74 79 81 82 73 68 81 72 80 78 84 87 84 85 84 83 81 84 86 86 86 89 88
63 63 63 64 65 69 70 71 73 77 77 73 74 82 86 104 73 94 77 90 90 87 91 93 92 88 90 91 90 90 89 89 91
64 62 63 66 66 67 69 69 72 76 83 81 74 78 87 93 110 91 101 90 93 96 94 97 95 96 94 90 95 93 89 90 90
64 66 66 66 66 67 69 72 74 75 78 81 84 85 88 92 107 126 108 104 92 95 99 99 99 96 99 96 93 90 91 92 93
Wind_Direction
333 339 336 332 326 327 322 316 313 311 311 313 318 319 312 307 296 295 297 315 335 323 322 315 305 297 296 283 268 266 279 291 303
328 326 325 327 322 322 320 314 310 310 311 315 313 308 305 307 307 292 284 295 307 314 308 302 299 296 294 283 271 268 273 282 289
326 323 322 318 319 320 320 317 314 311 309 309 309 304 305 303 294 304 303 304 288 302 307 299 294 293 291 285 270 267 266 279 281
326 325 323 320 318 316 316 314 315 313 310 309 306 302 302 309 309 299 308 297 296 288 306 301 296 289 289 287 272 266 264 269 274
323 321 322 319 320 318 318 314 311 311 308 307 307 304 302 301 300 301 306 301 301 287 297 302 296 289 286 287 281 267 267 262 268
324 322 320 317 321 319 316 314 312 310 309 307 304 303 301 299 298 296 295 295 293 297 286 294 297 287 285 281 282 273 266 263 262
327 324 323 321 320 316 317 316 312 311 309 306 305 303 299 297 295 294 292 290 290 289 297 295 285 289 280 278 277 274 268 266 261
329 326 324 323 322 319 317 313 312 312 310 306 303 301 300 298 295 292 289 289 289 289 286 291 295 279 282 278 271 270 269 264 263
325 325 323 322 322 319 318 315 313 311 311 308 305 302 298 295 294 293 291 289 288 287 286 284 285 288 281 279 272 268 266 264 262
326 323 321 320 320 317 315 314 312 310 309 308 305 302 300 297 294 291 289 289 287 286 285 283 281 283 283 279 272 269 264 265 259
323 322 321 320 319 317 313 310 309 309 307 304 304 302 300 298 295 292 290 288 286 285 283 283 282 279 279 277 274 266 262 264 259
321 320 318 318 318 316 315 313 310 306 304 302 302 300 299 298 296 293 291 288 286 285 282 282 280 279 276 278 272 270 265 263 261
323 322 322 323 323 321 319 317 313 312 308 304 301 298 297 295 294 294 293 290 287 285 283 281 279 278 277 273 274 270 267 264 260
322 322 322 322 321 320 319 317 316 313 311 307 302 301 296 293 293 293 292 291 289 286 284 281 279 277 276 274 272 270 268 264 260
323 321 321 322 320 319 319 317 316 314 311 308 305 303 299 297 295 293 294 292 293 294 290 285 283 282 280 277 275 272 269 267 262
321 320 319 319 318 317 317 315 314 313 313 309 306 304 302 299 298 297 295 292 292 290 290 288 285 282 281 278 278 277 275 271 264
319 318 317 318 318 317 317 317 315 314 317 311 306 299 298 297 300 299 295 292 291 287 287 286 285 284 280 278 277 276 274 273 273
317 317 316 316 316 315 316 316 314 311 312 313 307 300 294 297 294 296 294 294 292 289 286 284 283 283 282 278 276 274 274 273 270
317 317 317 316 316 315 315 315 313 311 307 307 305 299 297 294 290 293 294 293 291 289 286 284 283 281 280 278 276 272 272 270 273
317 317 317 317 317 316 315 313 311 310 307 305 303 300 297 294 289 289 291 293 292 290 287 284 282 281 280 276 273 272 270 269 269